COSMOS 1904

导读 | 星芒AI

COSMOS 1904 是一颗由苏联于1981年发射的军用侦察卫星,属于“宇宙”(COSMOS)系列。该卫星主要用于电子情报收集和监视任务,其具体功能和轨道参数未公开。COSMOS 1904 在轨道上运行多年,最终失去联系并进入衰减轨道。该系列卫星在冷战期间发挥了重要作用,展示了苏联在空间监视和情报领域的技术能力。

基本信息
目录编号:
18709
目录名称:
COSMOS 1904
国际标识:
1987-106A
轨道中心:
EARTH
卫星名称:
COSMOS 1904
卫星全名:
--
卫星状态:
在轨 (已飞行13872 天)
发射日期:
1987-12-23 UTC
国别 :
俄罗斯(独联体) (CIS)
星等 :
--
轨道信息
数据来源 国际轨道数据 AOE轨道数据
星历时间 2025-12-14T16:26:29+0800
23小时前
查看轨道信息
2025-12-13T04:00:00+0800
2天前
查看轨道信息
半长轴 7361.758km 7361.732km
偏心率 0.0026998 0.0027915
轨道倾角 82.914° 82.916°
近地点辐角 194.364° 197.523°
升交点赤经 207.838° 208.967°
平近点角 338.936° 26.999°
近地点 963.747km 963.046km
远地点 1003.499km 1004.148km
周期 104.769分钟 104.768分钟
每日圈数 13.744548 13.744621
详细信息
使用方式:
暂无
2D轨道图
3D轨道图
轨道高度分析图
轨道倾角分析图
轨道综合分析图
查看轨道综合分析图